Regional Weather Roundup
Issued by NWS Mt. Holly, NJ

Home | Current Version | Previous Version | Text Only | Print | Product List | Glossary On
Versions: 1 2 3 4 5 6 7 8 9 10 11 12 13 14 15 16 17 18 19 20 21 22 23 24 25 26 27 28
000
ASUS41 KPHI 201112
RWRPHI

REGIONAL WEATHER ROUNDUP
NATIONAL WEATHER SERVICE MOUNT HOLLY NJ
600 AM EST MON FEB 20 2017

NOTE:  "FAIR" INDICATES FEW OR NO CLOUDS BELOW 12,000 FEET WITH NO
SIGNIFICANT WEATHER AND/OR OBSTRUCTIONS TO VISIBILITY.

 * = STATION DOES NOT REPORT PRECIPITATION (E.G. RAIN, SNOW, ETC.)
        OR FOG.

NJZ015>026-201200-
SOUTHERN NEW JERSEY

CITY           SKY/WX    TMP DP  RH WIND       PRES   REMARKS
POMONA         CLEAR     35  28  75 W3        30.12R
WILDWOOD*      CLEAR     38  35  89 N3        30.13R
MILLVILLE      CLEAR     37  33  85 NW5       30.12R WCI  33
WRIGHTSTOWN    CLEAR     44  33  65 N7        30.09R
MOUNT HOLLY    CLEAR     45  31  58 N12       30.12R
TRENTON        CLEAR     45  32  60 N7        30.12R

$$
NJZ001>014-201200-
NORTHERN NEW JERSEY

CITY           SKY/WX    TMP DP  RH WIND       PRES   REMARKS
SUSSEX         CLEAR     40  30  67 NW8       30.12R WCI  34
ANDOVER*         N/A     33  29  85 VRB3      30.13R
MORRISTOWN     CLEAR     41  30  65 W7        30.13R
NEWARK         CLEAR     44  31  60 NW12G24   30.11R
TETERBORO      CLEAR     44  31  60 NW8       30.10R
CALDWELL       CLEAR     42  30  62 NW7       30.13R
SOMERVILLE     CLEAR     30  27  88 CALM      30.12R
ALLAIRE*       CLEAR     45  31  58 NW12      30.11R
TOMS RIVER*    CLEAR     28  25  88 W3        30.12R

$$
PAZ043-044-047-054-055-060>062-066>071-201200-
EASTERN PENNSYLVANIA

CITY           SKY/WX    TMP DP  RH WIND       PRES   REMARKS
PHILADELPHIA   CLEAR     44  32  62 N9        30.14R
NORTH PHILA    CLEAR     45  32  60 N10       30.14R
BLUE BELL*     CLEAR     37  32  81 CALM      30.12R
DOYLESTOWN     CLEAR     45  32  60 N6        30.12R
QUAKERTOWN*    CLEAR     36  32  87 CALM      30.14R
PERKASIE*      FAIR      41  32  70 N5        30.14R
POTTSTOWN      CLEAR     41  32  70 N3        30.14R
LANCASTER      CLEAR     41  32  70 N6        30.14R
COATESVILLE    CLEAR     45  32  61 N5        30.14R
READING        CLEAR     45  34  65 CALM      30.13R
ALLENTOWN      CLEAR     39  30  70 CALM      30.14R
MOUNT POCONO   CLEAR     33  29  85 NW8       30.07R WCI  26
HAZLETON       CLEAR     36  30  80 NW9       30.14R WCI  29
LEHIGHTON      FAIR      32  30  93 CALM      30.14R
WILKES BARRE   MOCLDY    37  30  75 NW9       30.15R WCI  30

$$
DEZALL-MDZ008-012-015-019-020-201200-
DELAWARE AND EASTERN MARYLAND

CITY           SKY/WX    TMP DP  RH WIND       PRES   REMARKS
WILMINGTON     CLEAR     41  31  67 NW9       30.14R
DOVER          CLEAR     43  40  90 NW3       30.12R
GEORGETOWN     CLEAR     42  38  85 CALM      30.13R
EASTON         CLEAR     45  40  84 CALM      30.17R
ABERDEEN       CLEAR     36  33  90 CALM      30.15R
PATUXENT       CLEAR     48  42  80 W7        30.14R
OCEAN CITY     CLEAR     46  39  76 NW6       30.13R
WALLOPS ISLAND CLEAR     49  43  80 NW7       30.13R
CAMBRIDGE      CLEAR     45  41  87 CALM      30.14R
SALISBURY      CLEAR     46  41  82 NW5       30.12R

$$
PAZ001-021-NYZ056-072-MDZ011-DCZ001-201200-
OTHER NEARBY LOCATIONS

CITY           SKY/WX    TMP DP  RH WIND       PRES   REMARKS
HARRISBURG     CLEAR     45  31  58 N7        30.15R
STATE COLLEGE  CLEAR     39  28  65 CALM      30.18R
WILLIAMSPORT   CLEAR     37  30  75 NW3       30.17R
BINGHAMTON     MOCLDY    30  27  88 NW8       30.14R WCI  22
NEW YORK CITY  CLEAR     45  31  58 CALM      30.13R
BALTIMORE      PTCLDY    41  37  86 CALM      30.14R
WASHINGTON DC  PTCLDY    44  41  89 S3        30.15R

$$




USA.gov is the U.S. government's official web portal to all federal, state and local government web resources and services.